Wind_Speed
41 42 40 39 39 38 35 36 33 30 28 27 27 25 23 21 20 21 18 18 19 17 15 16 15 16 17 18 20 24 25 20 19 14 25 39 34 27 29 30 34 32 29 32 33
43 44 44 43 43 42 40 39 39 37 34 31 29 30 28 26 26 23 24 23 23 24 24 23 22 21 21 20 20 23 25 24 24 35 35 38 37 33 33 33 34 37 37 34 32
44 44 41 45 46 45 43 43 42 42 40 38 35 33 33 31 32 22 26 24 22 22 25 25 25 24 22 22 22 23 23 26 29 36 31 31 36 39 37 36 38 42 39 38 38
43 42 40 43 43 44 43 43 44 43 43 41 39 37 37 36 38 23 27 24 22 23 25 26 25 25 24 24 21 17 19 22 25 30 31 29 31 32 36 39 42 39 40 41 42
44 41 40 40 40 40 41 42 40 39 41 42 41 38 37 37 41 29 32 25 23 22 26 26 28 27 26 25 24 21 22 23 27 28 32 31 26 30 32 39 33 36 38 40 41
40 38 39 39 38 35 38 39 37 37 38 37 36 36 37 37 41 34 35 30 29 27 28 29 27 30 30 28 29 28 24 25 27 26 26 24 27 35 38 34 35 37 40 41 42
39 37 37 34 35 32 33 35 37 37 35 36 36 35 35 37 38 35 34 32 28 28 30 30 29 31 32 30 29 27 28 27 32 35 34 32 31 36 37 33 34 36 37 40 48
42 39 38 34 35 33 32 36 35 36 35 36 35 32 31 32 32 31 31 31 28 27 32 34 30 30 32 30 29 30 29 30 36 37 34 29 28 39 38 34 33 36 40 43 43
49 46 43 40 39 36 35 34 37 38 40 38 38 35 32 27 29 27 29 30 27 30 32 34 33 33 32 33 33 32 33 33 37 38 35 30 27 33 41 39 39 36 41 40 41
41 46 44 40 42 44 40 36 39 37 37 39 34 35 34 29 29 31 27 30 37 37 36 33 37 36 33 40 37 33 33 35 34 35 47 41 31 36 39 44 46 45 43 44 46
42 43 45 42 44 47 40 38 38 38 36 39 35 33 28 31 30 32 33 35 36 33 34 33 31 31 37 40 33 33 35 38 39 41 44 44 39 42 43 47 46 47 46 48 50
52 50 50 47 46 46 50 45 45 44 41 40 39 39 38 35 33 33 31 31 27 24 26 31 26 33 34 33 36 37 37 37 42 40 42 43 45 45 47 48 46 45 47 51 53
65 56 57 55 53 58 50 44 45 45 47 41 40 41 41 38 35 36 29 27 25 24 27 23 27 29 27 31 33 36 34 36 36 38 42 43 47 47 45 51 52 53 54 55 47
78 78 72 74 69 64 57 53 44 51 52 49 49 47 45 39 39 38 31 30 31 31 33 37 28 33 32 33 35 33 35 38 45 47 46 44 46 43 45 53 57 59 61 59 58
79 79 76 73 71 66 62 57 55 53 55 56 53 47 42 39 43 40 40 39 38 38 39 40 43 43 38 42 43 43 45 45 46 47 50 46 45 44 31 42 60 60 58 59 60
80 78 75 72 67 48 64 58 57 59 45 41 47 46 43 40 41 44 43 42 41 37 41 40 44 40 43 45 46 47 49 48 43 45 49 44 45 27 28 40 59 61 62 62 61
82 80 76 70 67 67 65 60 61 69 60 54 49 47 47 44 43 41 35 31 32 35 38 39 41 43 43 46 45 46 44 42 40 46 45 36 45 34 43 50 56 63 63 62 62
78 77 73 71 59 65 62 61 65 69 71 67 58 54 47 46 46 44 43 43 42 42 40 43 45 45 46 42 43 43 41 38 46 40 32 37 46 37 49 55 61 62 60 59 62
77 73 71 71 67 67 66 69 70 63 63 49 61 67 64 55 49 55 46 43 42 40 40 38 44 45 43 41 40 41 42 46 43 45 45 44 42 35 43 58 64 60 57 60 63
75 73 69 67 66 67 66 52 61 62 63 59 63 69 67 54 51 49 46 46 43 45 43 42 45 46 43 41 41 43 48 45 46 45 47 45 36 28 41 56 59 63 61 63 62
70 67 62 67 68 68 61 71 71 67 63 60 58 56 56 46 49 41 42 43 42 45 48 43 47 51 55 50 42 48 46 46 44 45 46 48 43 42 49 52 49 56 59 59 60
64 66 67 53 74 74 76 72 66 65 64 60 58 53 46 44 47 45 45 48 46 46 45 44 50 45 46 48 49 43 48 46 43 43 47 48 46 46 48 50 52 53 47 48 46
63 64 67 75 69 67 62 64 63 65 60 54 51 50 49 52 52 49 48 50 46 44 42 47 45 45 45 46 45 46 46 45 45 45 44 43 41 43 44 48 51 42 41 45 47
59 64 66 70 66 44 44 51 56 57 58 52 53 54 55 52 51 50 46 46 46 44 46 45 47 46 44 38 48 44 43 43 44 42 36 39 36 27 45 47 36 35 40 43 44
59 60 57 59 62 64 57 53 51 52 53 51 54 54 54 50 48 48 48 49 51 49 45 47 47 47 47 40 37 39 44 42 36 36 37 32 32 33 41 34 31 35 37 38 39
57 51 52 54 53 58 60 47 48 52 43 41 36 42 51 50 46 44 41 48 41 44 48 48 50 52 42 33 37 38 37 35 36 35 34 31 27 40 32 31 33 37 35 35 38
55 48 51 54 54 54 53 52 54 50 43 43 44 41 41 42 42 42 39 40 40 44 48 52 43 38 35 35 35 38 32 32 33 34 29 27 28 30 28 32 33 35 34 37 39
Wind_Direction
259 260 261 263 267 269 271 274 275 273 271 270 271 270 271 272 271 275 279 278 283 280 273 272 273 278 280 277 272 270 266 258 247 251 233 247 262 270 267 264 268 268 261 262 267
261 261 262 261 262 265 269 271 274 276 274 273 273 276 273 273 274 273 273 276 278 277 274 273 275 275 272 274 276 271 269 261 246 246 244 258 269 264 263 261 262 262 263 265 268
262 263 263 263 263 264 266 269 270 273 276 278 278 277 277 274 272 276 273 277 281 288 276 268 269 267 266 271 274 274 274 265 260 262 260 261 265 268 269 264 259 258 264 266 271
266 267 265 264 265 264 262 265 269 270 272 273 276 277 279 280 274 270 270 272 278 290 285 269 262 258 262 268 266 275 277 276 273 271 269 263 267 270 269 266 263 268 269 268 269
264 265 265 267 266 265 265 265 268 269 273 274 276 276 274 277 279 274 269 267 273 286 292 280 267 263 264 263 262 272 280 287 280 274 267 267 270 267 266 264 272 270 271 271 273
265 261 262 268 261 263 266 264 265 266 270 270 274 275 274 277 281 269 268 266 271 279 290 292 281 270 264 264 265 273 282 279 277 273 273 273 273 266 264 268 271 272 272 273 272
266 260 261 262 255 264 265 266 265 266 265 264 269 274 273 274 278 269 263 266 270 278 286 284 287 275 271 267 267 273 279 278 274 273 274 277 282 274 270 271 274 275 277 276 272
257 256 255 259 260 260 269 269 266 262 262 265 268 273 275 275 276 265 264 266 272 280 283 285 290 283 273 269 267 274 278 277 279 280 285 280 280 278 280 274 275 276 274 274 277
250 253 253 257 258 259 266 269 264 265 269 265 266 274 274 278 273 266 266 269 274 279 282 287 285 284 276 269 270 277 280 278 280 283 280 282 277 276 277 283 276 273 272 276 276
239 246 252 252 254 260 268 266 265 264 270 270 271 276 273 273 273 273 271 270 274 275 276 278 280 283 277 269 267 275 295 285 273 278 286 292 280 270 272 274 279 281 281 280 282
239 246 248 249 256 262 262 263 262 261 261 268 275 276 270 281 283 281 281 281 281 282 277 275 275 275 268 274 279 274 274 281 279 278 285 290 286 280 279 277 279 281 284 287 287
238 239 244 245 253 257 266 265 260 264 269 269 269 273 276 279 276 282 282 284 288 285 281 280 265 263 271 272 270 270 270 273 274 282 285 288 287 286 283 288 286 288 290 292 294
240 241 243 249 254 258 260 264 260 262 266 261 267 269 272 276 277 281 276 280 285 284 284 272 279 273 274 272 271 273 276 275 280 280 285 285 283 285 287 285 285 284 284 286 293
245 248 251 253 255 255 257 252 264 265 263 264 267 262 268 269 269 271 272 276 281 277 272 275 272 276 285 281 273 272 273 280 280 281 281 283 284 291 287 287 284 279 280 285 290
248 249 250 253 256 258 252 253 253 269 261 262 265 263 258 260 268 264 268 272 277 279 274 274 274 275 283 271 271 267 271 277 281 280 280 284 286 290 258 275 282 285 290 291 292
250 251 251 250 252 250 251 251 249 247 247 243 250 251 252 254 260 264 269 275 280 274 271 272 276 273 268 269 271 271 274 277 280 285 283 288 289 283 244 252 287 293 293 295 299
249 252 251 251 250 249 251 247 247 244 244 250 248 250 253 258 261 266 273 281 283 277 280 276 277 278 272 270 270 272 276 281 287 289 295 286 285 271 259 270 291 295 295 299 297
245 246 247 248 247 249 248 250 248 241 251 256 259 245 257 261 267 272 279 283 282 281 275 277 277 273 276 271 273 275 276 284 284 290 279 276 290 274 278 284 287 290 296 296 293
243 243 244 245 238 244 245 248 248 247 253 261 262 254 263 273 276 277 281 280 274 273 273 273 274 278 273 265 272 277 281 280 288 287 285 288 283 272 269 284 291 294 293 292 293
236 238 238 238 237 238 236 243 246 247 249 255 259 261 267 275 273 275 276 276 270 268 263 268 271 276 276 279 280 283 281 286 285 287 286 288 279 247 262 279 291 295 296 295 296
229 228 231 230 231 230 235 235 247 246 246 250 253 261 264 265 269 268 267 264 260 263 266 265 269 272 274 278 280 278 281 281 280 284 283 282 278 272 271 278 286 289 291 294 293
227 225 224 225 230 227 235 240 241 243 244 246 251 254 254 255 254 261 260 256 256 261 260 261 262 266 273 271 278 279 280 279 278 280 280 280 278 275 279 281 287 287 294 299 301
225 225 219 219 228 233 236 240 236 236 244 244 246 246 248 247 250 258 258 261 264 262 263 264 271 271 267 274 272 274 274 278 279 278 279 282 282 283 283 287 297 304 300 305 311
220 224 221 220 220 226 222 229 237 237 239 239 241 242 245 248 254 259 257 255 255 268 272 273 271 269 266 261 272 277 277 276 277 277 282 283 284 283 293 297 305 305 308 313 310
219 221 221 224 224 223 236 231 227 233 237 239 240 243 248 250 255 259 258 261 265 271 272 272 272 269 261 261 272 273 277 278 283 286 284 285 285 280 290 299 301 311 309 309 309
213 212 221 214 219 223 219 232 231 234 227 234 243 250 244 249 257 259 259 264 269 266 272 272 272 267 259 266 267 270 272 280 282 281 282 285 278 291 301 304 304 308 312 315 313
208 209 213 215 213 220 220 228 225 232 239 241 245 246 245 243 243 246 258 268 271 264 269 265 267 265 267 264 265 270 277 274 276 277 283 285 284 291 292 300 305 308 309 312 316
Height
5810 5811 5812 5813 5815 5815 5816 5818 5818 5820 5821 5822 5823 5824 5826 5827 5828 5828 5830 5831 5832 5832 5831 5832 5831 5831 5831 5831 5831 5831 5832 5835 5838 5838 5835 5825 5827 5830 5832 5833 5830 5831 5832 5831 5830
5802 5803 5805 5806 5807 5809 5810 5811 5812 5813 5814 5815 5817 5819 5820 5820 5821 5823 5824 5825 5826 5826 5827 5827 5827 5826 5826 5826 5827 5825 5826 5828 5828 5823 5826 5823 5822 5824 5825 5826 5825 5822 5822 5824 5826
5793 5795 5797 5799 5800 5802 5803 5805 5805 5806 5808 5809 5810 5811 5813 5814 5814 5820 5817 5819 5820 5820 5820 5821 5820 5821 5821 5820 5821 5820 5821 5820 5820 5816 5822 5822 5819 5818 5819 5819 5817 5815 5816 5816 5818
5784 5787 5788 5790 5791 5794 5795 5796 5798 5800 5800 5800 5802 5804 5805 5807 5807 5814 5811 5812 5813 5814 5814 5814 5814 5814 5814 5815 5814 5815 5814 5814 5814 5813 5813 5814 5815 5814 5812 5811 5808 5814 5813 5811 5810
5775 5777 5779 5781 5783 5786 5788 5790 5791 5792 5794 5794 5795 5796 5797 5799 5798 5805 5805 5806 5806 5807 5808 5808 5808 5808 5808 5809 5809 5809 5809 5808 5807 5807 5806 5807 5810 5807 5805 5801 5806 5804 5805 5804 5803
5767 5769 5771 5772 5775 5777 5780 5782 5783 5784 5786 5787 5789 5788 5790 5792 5793 5798 5797 5799 5799 5801 5801 5802 5802 5802 5802 5802 5803 5803 5804 5803 5801 5799 5799 5802 5802 5799 5797 5800 5800 5797 5796 5796 5796
5759 5760 5763 5766 5769 5771 5773 5775 5776 5777 5778 5780 5782 5782 5784 5784 5786 5786 5789 5791 5791 5792 5794 5796 5796 5796 5795 5796 5797 5797 5797 5797 5794 5792 5793 5796 5795 5789 5789 5793 5792 5791 5789 5787 5784
5750 5753 5756 5759 5762 5764 5765 5768 5769 5769 5771 5774 5775 5776 5778 5780 5777 5779 5782 5783 5783 5785 5786 5788 5789 5789 5789 5789 5789 5790 5790 5789 5785 5783 5784 5788 5788 5781 5780 5783 5784 5782 5781 5778 5778
5740 5742 5747 5750 5753 5756 5756 5759 5762 5763 5765 5767 5768 5769 5770 5774 5771 5773 5773 5775 5777 5778 5779 5780 5781 5782 5782 5782 5782 5782 5781 5781 5778 5775 5777 5777 5780 5777 5772 5773 5772 5775 5770 5769 5767
5729 5733 5736 5739 5743 5748 5749 5750 5754 5755 5757 5762 5761 5763 5763 5764 5766 5766 5767 5767 5770 5772 5772 5773 5774 5775 5775 5773 5774 5776 5774 5772 5773 5771 5760 5765 5771 5770 5768 5762 5760 5760 5760 5760 5758
5720 5724 5726 5729 5731 5736 5742 5741 5746 5748 5749 5753 5755 5755 5757 5758 5758 5758 5760 5761 5762 5763 5764 5764 5767 5768 5765 5765 5769 5768 5767 5765 5764 5762 5759 5757 5759 5756 5755 5752 5751 5748 5748 5747 5743
5710 5712 5715 5717 5721 5725 5729 5732 5735 5738 5743 5743 5744 5748 5750 5750 5752 5752 5753 5754 5756 5756 5757 5757 5758 5756 5757 5760 5758 5758 5758 5758 5755 5755 5751 5750 5747 5744 5741 5740 5740 5739 5737 5736 5735
5696 5700 5703 5706 5709 5716 5721 5724 5725 5724 5730 5735 5736 5738 5740 5744 5744 5745 5747 5746 5748 5750 5749 5752 5751 5751 5752 5751 5751 5749 5750 5748 5748 5746 5743 5739 5735 5731 5728 5727 5728 5726 5727 5728 5728
5683 5686 5692 5695 5699 5706 5712 5716 5716 5716 5716 5727 5729 5729 5730 5736 5737 5737 5743 5742 5742 5743 5743 5742 5745 5743 5746 5746 5743 5742 5741 5740 5738 5737 5736 5731 5730 5724 5715 5714 5716 5716 5716 5716 5712
5667 5673 5680 5682 5687 5694 5701 5704 5709 5710 5705 5710 5713 5720 5722 5726 5727 5731 5731 5733 5733 5734 5736 5734 5734 5735 5736 5734 5735 5732 5732 5729 5728 5726 5724 5724 5719 5722 5706 5703 5700 5703 5704 5701 5698
5651 5659 5663 5668 5677 5682 5686 5691 5698 5701 5692 5692 5702 5706 5711 5715 5717 5718 5722 5722 5723 5724 5724 5726 5725 5726 5725 5724 5723 5722 5722 5721 5718 5716 5714 5713 5709 5708 5701 5695 5688 5692 5692 5688 5684
5634 5642 5647 5654 5663 5667 5672 5678 5681 5680 5687 5687 5694 5697 5700 5703 5705 5709 5711 5713 5715 5716 5716 5716 5717 5717 5718 5715 5715 5714 5714 5712 5712 5705 5705 5700 5702 5699 5688 5686 5682 5678 5678 5674 5670
5616 5621 5628 5640 5647 5650 5658 5661 5661 5675 5676 5678 5680 5686 5691 5692 5695 5699 5700 5703 5707 5707 5706 5705 5706 5707 5708 5707 5705 5704 5704 5703 5700 5701 5701 5692 5692 5678 5668 5678 5674 5669 5668 5661 5655
5595 5601 5612 5622 5629 5634 5641 5639 5650 5668 5667 5667 5667 5672 5680 5681 5685 5686 5689 5692 5694 5699 5699 5696 5690 5695 5699 5698 5695 5693 5694 5692 5690 5690 5687 5690 5688 5671 5656 5661 5660 5659 5654 5647 5640
5573 5585 5595 5604 5612 5618 5623 5627 5641 5653 5654 5657 5658 5665 5670 5670 5672 5676 5678 5683 5683 5686 5686 5685 5681 5686 5688 5688 5687 5684 5683 5683 5677 5679 5676 5679 5673 5665 5646 5648 5647 5639 5636 5632 5625
5555 5565 5578 5585 5591 5598 5602 5616 5633 5638 5641 5646 5651 5656 5661 5662 5660 5667 5668 5669 5673 5674 5675 5674 5674 5672 5673 5678 5674 5675 5674 5672 5667 5666 5663 5664 5661 5652 5644 5638 5640 5631 5623 5618 5612
5541 5546 5564 5568 5570 5577 5593 5611 5616 5623 5626 5636 5639 5646 5649 5653 5651 5655 5657 5656 5661 5662 5664 5662 5661 5659 5664 5662 5665 5663 5659 5660 5657 5656 5653 5649 5650 5641 5638 5633 5628 5622 5617 5608 5601
5525 5533 5545 5552 5558 5569 5586 5595 5602 5609 5614 5624 5629 5635 5638 5640 5642 5644 5648 5646 5654 5656 5653 5652 5653 5654 5651 5654 5653 5652 5650 5647 5647 5645 5643 5638 5636 5629 5626 5620 5616 5612 5605 5599 5591
5512 5519 5527 5538 5549 5564 5571 5582 5590 5599 5605 5613 5618 5622 5625 5630 5634 5637 5635 5640 5643 5642 5643 5644 5644 5646 5645 5641 5642 5642 5641 5638 5636 5634 5632 5629 5625 5617 5613 5608 5607 5602 5595 5590 5583
5499 5505 5520 5530 5544 5557 5562 5569 5581 5586 5595 5601 5606 5611 5615 5620 5622 5626 5625 5630 5634 5634 5633 5634 5636 5634 5634 5631 5632 5631 5630 5628 5626 5624 5622 5621 5615 5609 5603 5602 5599 5596 5592 5585 5578
5490 5502 5513 5524 5532 5544 5553 5561 5572 5578 5585 5591 5596 5599 5605 5609 5613 5617 5617 5621 5623 5624 5623 5624 5625 5624 5624 5623 5622 5622 5621 5619 5618 5616 5613 5610 5608 5599 5598 5595 5592 5587 5582 5576 5570
5483 5497 5506 5515 5525 5533 5545 5556 5565 5567 5577 5583 5586 5591 5595 5599 5603 5605 5609 5611 5612 5614 5613 5613 5613 5613 5614 5614 5613 5613 5614 5612 5610 5607 5605 5602 5600 5595 5593 5588 5585 5580 5575 5570 5564